Meteo Giornale » Osservazioni meteo Stati Uniti (USA) » Newport

ore: 04:55 - Osservazioni Meteo Newport
Lat. 44° 56' N Lon. 72° 12' W Alt. 233 metri s.l.m.

sereno America/New_York

-9 °C

Sereno

Temp. 24 Ore

-10 °C

-1 °C

Nord

0 Km/h

Dew point -15 °C

Umidità 61 %

Visibilità  10 Km

Il sole sorge alle ore 07:12

Il sole tramonta alle ore 16:09

Data e Ora Cielo e Fenomeni T °C DP °C Um. % Pres. hPa Vis. km Vento km/h
Oggi h: 04:55 sereno Sereno -9 -15 61 1021 10 N 0
Oggi h: 04:35 sereno Sereno -9 -15 61 1021 10 N 0
Oggi h: 04:15 sereno Sereno -10 -13 78 1021 10 N 0
Oggi h: 03:55 sereno Sereno -9 -15 61 1021 10 N 0
Oggi h: 03:35 sereno Sereno -9 -15 61 1021 10 N 0
Oggi h: 03:15 sereno Sereno -9 -15 61 1021 10 N 0
Oggi h: 02:55 sereno Sereno -9 -15 61 1021 10 N 0
Oggi h: 02:35 nuvoloso Nuvoloso -8 -16 52 1021 10 N/NO 7.4
Oggi h: 02:15 molto_nuvoloso Molto Nuvoloso -8 -16 52 1021 10 N 0
Oggi h: 01:55 coperto Coperto -8 -17 48 1021 10 N 5.5
Oggi h: 01:35 coperto Coperto -7 -17 44 1022 10 N 0
Oggi h: 01:15 coperto Coperto -7 -16 48 1021 10 N 0
Oggi h: 00:55 coperto Coperto -7 -16 48 1022 10 N 0
Oggi h: 00:35 coperto Coperto -7 -16 48 1021 10 N 5.5
Oggi h: 00:15 coperto Coperto -7 -17 44 1021 10 N 5.5
Ieri h: 23:55 coperto Coperto -6 -16 44 1022 10 N 5.5
Ieri h: 23:35 coperto Coperto -6 -17 41 1022 10 O 7.4
Ieri h: 23:15 coperto Coperto -6 -16 44 1022 10 O 11.1
Ieri h: 22:55 coperto Coperto -6 -16 44 1022 10 O 9.3
Ieri h: 22:35 coperto Coperto -6 -15 48 1022 10 N 5.5
Ieri h: 22:15 coperto Coperto -6 -15 48 1022 10 N 0
Ieri h: 21:55 coperto Coperto -6 -16 44 1022 10 O 7.4
Ieri h: 21:35 coperto Coperto -6 -16 44 1022 10 N 5.5
Ieri h: 21:15 coperto Coperto -6 -16 44 1021 10 O/NO 11.1
Ieri h: 20:55 coperto Coperto -6 -15 48 1021 10 NO 9.3
Ieri h: 20:35 coperto Coperto -6 -16 44 1021 10 O/NO 7.4
Ieri h: 20:15 coperto Coperto -5 -16 41 1021 10 O/NO 13
Ieri h: 19:55 coperto Coperto -5 -15 45 1021 10 O/NO 11.1
Ieri h: 19:35 coperto Coperto -5 -15 45 1021 10 O/NO 13
Ieri h: 19:15 coperto Coperto -5 -15 45 1021 10 O/NO 16.7
Ieri h: 18:55 coperto Coperto -5 -14 49 1021 10 O/NO 18.5
Ieri h: 18:35 coperto Coperto -5 -14 49 1020 10 O/NO 9.3
Ieri h: 18:15 coperto Coperto -4 -14 45 1020 10 O/NO 9.3
Ieri h: 17:55 coperto Coperto -4 -13 49 1020 10 NO 11.1
Ieri h: 17:35 coperto Coperto -4 -14 45 1020 10 O 11.1
Ieri h: 17:15 coperto Coperto -4 -14 45 1019 10 O 13
Ieri h: 16:55 coperto Coperto -4 -14 45 1019 10 O/NO 9.3
Ieri h: 16:35 coperto Coperto -3 -13 45 1019 10 N 5.5
Ieri h: 16:15 coperto Coperto -3 -13 45 1019 10 O 13
Ieri h: 15:55 coperto Coperto -3 -13 45 1018 10 O/SO 11.1
Ieri h: 15:35 molto_nuvoloso Molto Nuvoloso -3 -14 42 1018 10 O 11.1
Ieri h: 15:15 sereno Sereno -3 -13 45 1018 10 O 13
Ieri h: 14:55 sereno Sereno -3 -14 42 1017 10 O 14.8
Ieri h: 14:35 sereno Sereno -3 -14 42 1017 10 O 22.2
Ieri h: 14:15 sereno Sereno -3 -15 38 1017 10 O/SO 11.1
Ieri h: 13:55 sereno Sereno -3 -14 42 1017 10 O 16.7
Ieri h: 13:35 sereno Sereno -3 -14 42 1018 10 O 14.8
Ieri h: 13:15 sereno Sereno -3 -14 42 1018 10 O 22.2
Ieri h: 12:55 sereno Sereno -3 -14 42 1017 10 O 22.2
Ieri h: 12:35 sereno Sereno -3 -13 45 1017 10 O/SO 22.2
Ieri h: 12:15 sereno Sereno -3 -13 45 1017 10 O/SO 24
Ieri h: 11:55 sereno Sereno -2 -13 42 1017 10 O 13
Ieri h: 11:35 sereno Sereno -3 -13 45 1017 10 O 20.3
Ieri h: 11:15 sereno Sereno -3 -13 45 1017 10 O 24
Ieri h: 10:55 sereno Sereno -3 -13 45 1017 10 O/SO 24
Ieri h: 10:35 nuvoloso Nuvoloso -3 -13 45 1017 10 O/SO 13
Ieri h: 10:15 sereno Sereno -3 -13 45 1017 10 SO 9.3
Ieri h: 09:55 sereno Sereno -4 -13 49 1017 10 O 11.1
Ieri h: 09:35 sereno Sereno -3 -13 45 1017 10 O/SO 11.1
Ieri h: 09:15 sereno Sereno -4 -13 49 1016 10 SO 9.3
Ieri h: 08:55 sereno Sereno -4 -13 49 1015 10 N 5.5
Ieri h: 08:35 sereno Sereno -4 -12 53 1015 10 NO 11.1
Ieri h: 08:15 sereno Sereno -4 -12 53 1015 10 O 11.1
Ieri h: 07:55 sereno Sereno -5 -12 57 1014 10 O 11.1
Ieri h: 07:35 sereno Sereno -5 -12 57 1014 10 O 14.8
Ieri h: 07:15 sereno Sereno -4 -12 53 1014 10 O 20.3
Ieri h: 06:55 sereno Sereno -4 -12 53 1013 10 O 22.2
Ieri h: 06:35 sereno Sereno -4 -12 53 1013 10 O 20.3
Ieri h: 06:15 sereno Sereno -3 -12 49 1012 10 O 22.2
Ieri h: 05:55 sereno Sereno -3 -11 53 1012 10 O/SO 31.5
Ieri h: 05:35 nuvoloso Nuvoloso -2 -10 54 1011 10 O 27.8
Ieri h: 05:15 nuvoloso Nuvoloso -2 -9 58 1011 10 O/SO 25.9
Ieri h: 04:55 nuvoloso Nuvoloso -1 -9 54 1010 10 O/SO 33.3
Ieri h: 04:35 molto_nuvoloso Molto Nuvoloso -1 -7 63 1009 10 O 29.6